This is the latest recevied weather packets stored in our database for station/object DL6MM-4. If no packets are shown the sender has not sent any weather packets the latest 1 day(s).
| Time | Temp. | Humidity | Pressure | Rain* | Wind** | Luminosity | Snow |
|---|---|---|---|---|---|---|---|
| 1778096957 | 9.44° C | 85% | 1006.4 hPa | 0 mm | - | - | - |
| 1778096357 | 9.44° C | 85% | 1006.2 hPa | 0 mm | - | - | - |
| 1778095757 | 9.44° C | 85% | 1006.1 hPa | 0 mm | - | - | - |
| 1778095157 | 9.44° C | 85% | 1006 hPa | 0.25 mm | - | - | - |
| 1778093957 | 9.44° C | 86% | 1005.7 hPa | 0 mm | - | - | - |
| 1778092757 | 9.44° C | 86% | 1005.5 hPa | 0 mm | - | - | - |
| 1778091557 | 9.44° C | 86% | 1005.4 hPa | 0 mm | - | - | - |
| 1778090957 | 10° C | 85% | 1005.2 hPa | 0 mm | - | - | - |
| 1778090357 | 10° C | 85% | 1005.2 hPa | 0 mm | - | - | - |
| 1778089157 | 10° C | 85% | 1005 hPa | 0 mm | - | - | - |
| 1778086157 | 10.56° C | 84% | 1004.9 hPa | 0 mm | - | - | - |
| 1778050156 | 10.56° C | 81% | 1002.9 hPa | 0.51 mm | - | - | - |
| 1778044756 | 10.56° C | 81% | 1002.7 hPa | 0 mm | - | - | - |
| 1778043556 | 10.56° C | 81% | 1002.7 hPa | 0.51 mm | - | - | - |
| 1778042956 | 10.56° C | 81% | 1002.7 hPa | 0.51 mm | - | - | - |
| 1778042356 | 10.56° C | 81% | 1002.7 hPa | 1.02 mm | - | - | - |
| 1778040556 | 10.56° C | 82% | 1002.9 hPa | 1.78 mm | - | - | - |
| 1778039356 | 10.56° C | 83% | 1003 hPa | 1.78 mm | - | - | - |
| 1778038756 | 10.56° C | 83% | 1003.1 hPa | 1.78 mm | - | - | - |
| 1778036956 | 10.56° C | 84% | 1003.2 hPa | 2.03 mm | - | - | - |
| 1778035156 | 11.11° C | 85% | 1003.7 hPa | 2.29 mm | - | - | - |
| 1778033956 | 11.11° C | 85% | 1003.7 hPa | 2.03 mm | - | - | - |
| 1778032756 | 11.11° C | 85% | 1003.9 hPa | 2.03 mm | - | - | - |
| 1778032156 | 11.11° C | 85% | 1004 hPa | 2.03 mm | - | - | - |
| 1778030956 | 11.11° C | 85% | 1004.1 hPa | 2.03 mm | - | - | - |
* Rain latest hour (hover to see other rain measurements)
** Current wind speed in m/s (hover to see current wind gust speed)